Deville, LA

5:50 AM CDT on October 01, 2016 (GMT -0500)
Alexandria Esler Regional

Weather History for KESF - December, 2013

Change the Weather History Date:

Friday, December 6, 2013

  Actual Average Record
Temperature  
Mean Temperature 40 °F -  
Max Temperature 44 °F 63 °F 80 °F (1998)
Min Temperature 36 °F 42 °F 24 °F (2005)
Degree Days  
Heating Degree Days 24    
Moisture  
Dew Point 38 °F    
Average Humidity 88    
Maximum Humidity 93    
Minimum Humidity 81    
Precipitation  
Precipitation 0.64 in - - ()
Sea Level Pressure  
Sea Level Pressure 30.13 in    
Wind  
Wind Speed 5 mph (North)    
Max Wind Speed 10 mph    
Max Gust Speed 18 mph    
Visibility 6 miles    
Events Rain    
Averages and records for this station are not official NWS values.
T = Trace of Precipitation, MM = Missing Value Source: NWS Daily Summary

Daily Weather History Graph

Daily Weather History Graph

Search for Another Location

Airport or City:

Trip Planner

Search our weather history database for the weather conditions in past years. The results will help you decide how hot, cold, wet, or windy it might be!

Date:

Astronomy

Dec. 06, 2013 Rise Set
Actual Time 6:54 AM CST 5:06 PM CST
Civil Twilight 6:28 AM CST 5:32 PM CST
Nautical Twilight 5:57 AM CST 6:02 PM CST
Astronomical Twilight 5:28 AM CST 6:32 PM CST
Moon 10:09 AM CST (12/6) 9:28 PM CST (12/6)
Length of Visible Light 11h 04m
Length of Day
10h 11m
Waxing Crescent, 19% of the Moon is Illuminated
Dec 6
Waxing Crescent
Dec 9
First Quarter
Dec 17
Full
Dec 25
Last Quarter
Jan 1
New

Hourly Weather History & Observations

Time (CST) Temp. Windchill Dew Point Humidity Pressure Visibility Wind Dir Wind Speed Gust Speed Precip Events Conditions
12:53 AM 44.1 °F 41.5 °F 41.0 °F 89% 30.02 in 3.0 mi North 4.6 mph - 0.00 in   Overcast
1:53 AM 44.1 °F 41.5 °F 41.0 °F 89% 30.01 in 5.0 mi Variable 4.6 mph - 0.00 in   Overcast
2:14 AM 42.8 °F 41.1 °F 41.0 °F 93% 30.00 in 4.0 mi Variable 3.5 mph - N/A   Overcast
2:53 AM 43.0 °F 39.5 °F 41.0 °F 93% 30.00 in 4.0 mi Variable 5.8 mph - N/A   Overcast
3:53 AM 43.0 °F 40.3 °F 41.0 °F 93% 30.00 in 2.5 mi North 4.6 mph - 0.00 in   Overcast
4:03 AM 42.8 °F 41.1 °F 41.0 °F 93% 30.00 in 3.0 mi Variable 3.5 mph - 0.00 in Rain Light Rain
4:53 AM 43.0 °F 40.3 °F 39.9 °F 89% 30.01 in 4.0 mi Variable 4.6 mph - 0.01 in   Overcast
5:22 AM 42.8 °F 40.1 °F 39.2 °F 87% 30.01 in 2.5 mi Variable 4.6 mph - 0.00 in   Overcast
5:46 AM 42.8 °F - 39.2 °F 87% 30.01 in 3.0 mi Calm Calm - 0.00 in Rain Light Rain
5:53 AM 42.1 °F 37.7 °F 39.9 °F 92% 30.02 in 4.0 mi ENE 6.9 mph - 0.01 in Rain Light Rain
6:53 AM 42.1 °F 38.4 °F 39.9 °F 92% 30.04 in 4.0 mi North 5.8 mph - 0.00 in   Overcast
7:20 AM 42.8 °F 39.3 °F 39.2 °F 87% 30.04 in 2.5 mi Variable 5.8 mph - 0.01 in Rain Light Rain
7:53 AM 42.1 °F 40.2 °F 39.9 °F 92% 30.05 in 2.0 mi Variable 3.5 mph - 0.02 in Rain Light Rain
8:03 AM 42.8 °F 40.1 °F 39.2 °F 87% 30.06 in 5.0 mi North 4.6 mph - 0.00 in   Overcast
8:12 AM 42.8 °F 41.1 °F 39.2 °F 87% 30.06 in 6.0 mi Variable 3.5 mph - 0.00 in   Overcast
8:53 AM 42.1 °F - 39.0 °F 89% 30.05 in 8.0 mi Calm Calm - 0.00 in Rain Light Rain
9:53 AM 43.0 °F 40.3 °F 39.9 °F 89% 30.09 in 7.0 mi Variable 4.6 mph - 0.01 in   Overcast
10:26 AM 42.8 °F 38.6 °F 39.2 °F 87% 30.11 in 2.0 mi NNW 6.9 mph - 0.00 in Rain Light Rain
10:41 AM 42.8 °F 38.6 °F 39.2 °F 87% 30.12 in 3.0 mi NW 6.9 mph - 0.01 in Rain Rain
10:47 AM 42.8 °F 38.0 °F 39.2 °F 87% 30.11 in 1.8 mi North 8.1 mph - 0.06 in Rain Heavy Rain
10:48 AM 42.1 °F 37.1 °F 39.0 °F 89% 30.11 in 1.8 mi North 8.1 mph - 0.07 in Rain Heavy Rain
10:58 AM 42.8 °F 40.1 °F 39.2 °F 87% 30.12 in 1.0 mi WNW 4.6 mph - 0.10 in Rain Heavy Rain
11:10 AM 42.8 °F 40.1 °F 39.2 °F 87% 30.13 in 3.0 mi North 4.6 mph - 0.13 in Rain Light Rain
11:34 AM 42.8 °F 38.6 °F 39.2 °F 87% 30.12 in 10.0 mi Variable 6.9 mph - 0.14 in Rain Light Rain
11:49 AM 42.8 °F 38.6 °F 39.2 °F 87% 30.12 in 10.0 mi Variable 6.9 mph 17.3 mph 0.14 in   Overcast
11:53 AM 42.1 °F 37.1 °F 39.0 °F 89% 30.13 in 10.0 mi North 8.1 mph - 0.14 in   Overcast
12:15 PM 41.0 °F 38.0 °F 37.4 °F 87% 30.13 in 1.8 mi North 4.6 mph 16.1 mph 0.11 in Rain Light Rain
12:17 PM 41.0 °F 39.0 °F 37.4 °F 87% 30.13 in 0.8 mi Variable 3.5 mph 16.1 mph 0.17 in Rain Heavy Rain
12:35 PM 41.0 °F 36.4 °F 37.4 °F 87% 30.13 in 1.8 mi NNW 6.9 mph - 0.33 in Rain Rain
12:37 PM 41.0 °F 37.1 °F 37.4 °F 87% 30.14 in 3.0 mi Variable 5.8 mph - 0.33 in Rain Light Rain
12:44 PM 41.0 °F 38.0 °F 39.2 °F 93% 30.14 in 10.0 mi North 4.6 mph - 0.33 in Rain Light Rain
12:53 PM 41.0 °F 35.2 °F 37.9 °F 89% 30.14 in 9.0 mi NNW 9.2 mph - 0.33 in   Overcast
1:00 PM 41.0 °F 35.8 °F 37.4 °F 87% 30.14 in 10.0 mi NNW 8.1 mph - N/A   Overcast
1:10 PM 41.0 °F 38.0 °F 37.4 °F 87% 30.14 in 10.0 mi Variable 4.6 mph - N/A   Overcast
1:32 PM 41.0 °F 35.8 °F 37.4 °F 87% 30.15 in 2.5 mi NW 8.1 mph - 0.02 in Rain Light Rain
1:43 PM 41.0 °F 36.4 °F 37.4 °F 87% 30.14 in 4.0 mi North 6.9 mph 17.3 mph 0.03 in Rain Light Rain
1:53 PM 41.0 °F 38.0 °F 37.9 °F 89% 30.15 in 4.0 mi North 4.6 mph - 0.04 in Rain Light Rain
2:53 PM 39.9 °F 35.8 °F 37.0 °F 89% 30.15 in 10.0 mi North 5.8 mph - 0.00 in   Overcast
3:53 PM 39.0 °F 35.7 °F 36.0 °F 89% 30.18 in 10.0 mi Variable 4.6 mph - 0.01 in   Overcast
4:53 PM 39.0 °F 36.8 °F 35.1 °F 86% 30.20 in 10.0 mi Variable 3.5 mph - N/A   Overcast
5:50 PM 39.2 °F 34.2 °F 35.6 °F 87% 30.22 in 10.0 mi Variable 6.9 mph - N/A   Overcast
5:53 PM 39.0 °F 34.8 °F 35.1 °F 86% 30.23 in 10.0 mi Variable 5.8 mph - N/A   Overcast
6:40 PM 39.2 °F 34.2 °F 33.8 °F 81% 30.26 in 10.0 mi Variable 6.9 mph - N/A   Overcast
6:53 PM 39.0 °F 34.8 °F 34.0 °F 82% 30.26 in 10.0 mi Variable 5.8 mph - N/A   Overcast
7:07 PM 39.2 °F 35.0 °F 35.6 °F 87% 30.27 in 10.0 mi Variable 5.8 mph - N/A   Overcast
7:53 PM 37.9 °F 32.7 °F 34.0 °F 86% 30.28 in 10.0 mi Variable 6.9 mph - N/A   Overcast
8:53 PM 37.9 °F 30.9 °F 33.1 °F 83% 30.30 in 10.0 mi North 10.4 mph 18.4 mph N/A   Overcast
9:53 PM 37.0 °F 31.0 °F 33.1 °F 86% 30.33 in 10.0 mi North 8.1 mph 16.1 mph N/A   Overcast
10:53 PM 37.0 °F 31.6 °F 33.1 °F 86% 30.35 in 10.0 mi Variable 6.9 mph - N/A   Overcast
11:53 PM 36.0 °F 30.3 °F 33.1 °F 89% 30.35 in 6.0 mi North 6.9 mph - N/A   Overcast